SBI4412 UUBW-ULLI

Flight info

Callsign SBI4412
Flight time 1h 14m
Altitude 36000
Route SUNUN M869 RAVKA N50 NUDKO T561 ODATI T875 GENPA
Aircraft A20N/M-SDE2E3FGHIRWXY/LB1

Departure

Time 2026-04-30 20:26
Airport Zhukovsky International Airport (UUBW)

Arrival

Time 2026-04-30 21:40
Airport Pulkovo Airport (ULLI)
Time Latitude Longitude Altitude Speed Heading
2026-04-30 20:05 55.56208 38.12323 396 ft 0 kts 222°
2026-04-30 20:14 55.56218 38.12339 396 ft 2 kts 221°
2026-04-30 20:15 55.56229 38.12357 396 ft 2 kts 222°
2026-04-30 20:15 55.56236 38.12368 396 ft 2 kts 220°
2026-04-30 20:15 55.56249 38.12380 395 ft 2 kts 191°
2026-04-30 20:15 55.56264 38.12381 395 ft 2 kts 168°
2026-04-30 20:16 55.56278 38.12371 395 ft 2 kts 144°
2026-04-30 20:16 55.56284 38.12361 394 ft 1 kts 131°
2026-04-30 20:16 55.56288 38.12353 394 ft 0 kts 130°
2026-04-30 20:18 55.56279 38.12371 394 ft 8 kts 131°
2026-04-30 20:18 55.56265 38.12400 395 ft 7 kts 131°
2026-04-30 20:19 55.56211 38.12507 396 ft 12 kts 131°
2026-04-30 20:19 55.56152 38.12611 397 ft 12 kts 133°
2026-04-30 20:19 55.56101 38.12734 397 ft 12 kts 112°
2026-04-30 20:19 55.56058 38.12878 396 ft 14 kts 131°
2026-04-30 20:20 55.55964 38.13064 393 ft 23 kts 131°
2026-04-30 20:20 55.55854 38.13282 390 ft 23 kts 131°
2026-04-30 20:20 55.55743 38.13502 386 ft 23 kts 131°
2026-04-30 20:20 55.55632 38.13723 382 ft 24 kts 131°
2026-04-30 20:21 55.55527 38.13931 378 ft 21 kts 131°
2026-04-30 20:21 55.55422 38.14142 372 ft 23 kts 131°
2026-04-30 20:21 55.55316 38.14353 369 ft 22 kts 131°
2026-04-30 20:21 55.55212 38.14560 366 ft 22 kts 131°
2026-04-30 20:22 55.55112 38.14757 364 ft 20 kts 131°
2026-04-30 20:22 55.55016 38.14949 363 ft 21 kts 131°
2026-04-30 20:22 55.54921 38.15138 364 ft 20 kts 131°
2026-04-30 20:22 55.54823 38.15333 366 ft 23 kts 131°
2026-04-30 20:23 55.54715 38.15547 366 ft 23 kts 131°
2026-04-30 20:23 55.54610 38.15757 366 ft 22 kts 131°
2026-04-30 20:23 55.54509 38.15957 366 ft 21 kts 131°
2026-04-30 20:23 55.54411 38.16153 366 ft 21 kts 131°
2026-04-30 20:24 55.54314 38.16344 366 ft 15 kts 131°
2026-04-30 20:24 55.54277 38.16484 366 ft 13 kts 78°
2026-04-30 20:24 55.54332 38.16600 366 ft 11 kts 41°
2026-04-30 20:24 55.54396 38.16690 364 ft 13 kts 17°
2026-04-30 20:25 55.54664 38.16214 366 ft 80 kts 311°
2026-04-30 20:25 55.55187 38.15171 367 ft 145 kts 311°
2026-04-30 20:26 55.56609 38.12308 1534 ft 161 kts 312°
2026-04-30 20:26 55.58048 38.09462 1956 ft 149 kts 313°
2026-04-30 20:26 55.58735 38.08110 1969 ft 148 kts 313°
2026-04-30 20:27 55.59550 38.04974 1951 ft 151 kts 252°
2026-04-30 20:27 55.58051 38.02264 1989 ft 158 kts 223°
2026-04-30 20:28 55.56068 38.00681 2245 ft 180 kts 162°
2026-04-30 20:28 55.54226 38.03881 2968 ft 195 kts 128°
2026-04-30 20:29 55.52453 38.07508 2964 ft 195 kts 129°
2026-04-30 20:30 55.49800 38.12973 3031 ft 198 kts 114°
2026-04-30 20:30 55.50880 38.19437 3973 ft 194 kts 50°
2026-04-30 20:31 55.55035 38.19628 3972 ft 246 kts 335°
2026-04-30 20:32 55.59729 38.15722 4044 ft 254 kts 323°
2026-04-30 20:32 55.61052 38.10066 5747 ft 265 kts 266°
2026-04-30 20:33 55.60758 38.06855 6463 ft 269 kts 263°
2026-04-30 20:33 55.59500 38.00664 6980 ft 277 kts 226°
2026-04-30 20:33 55.57901 37.98752 6988 ft 280 kts 210°
2026-04-30 20:34 55.54548 37.95300 6969 ft 278 kts 226°
2026-04-30 20:34 55.53016 37.89226 7703 ft 280 kts 258°
2026-04-30 20:35 55.52554 37.85963 8424 ft 279 kts 258°
2026-04-30 20:35 55.52064 37.82623 8855 ft 280 kts 258°
2026-04-30 20:35 55.51058 37.75979 8983 ft 280 kts 257°
2026-04-30 20:36 55.50526 37.72691 8986 ft 281 kts 254°
2026-04-30 20:36 55.49836 37.69449 8988 ft 282 kts 249°
2026-04-30 20:36 55.48239 37.63117 8989 ft 283 kts 248°
2026-04-30 20:37 55.47436 37.59964 8989 ft 283 kts 248°
2026-04-30 20:37 55.46601 37.56852 9008 ft 287 kts 241°
2026-04-30 20:37 55.45320 37.54108 9509 ft 294 kts 223°
2026-04-30 20:37 55.43708 37.51931 9891 ft 292 kts 216°
2026-04-30 20:38 55.42023 37.49887 9977 ft 292 kts 216°
2026-04-30 20:38 55.40358 37.47887 9985 ft 291 kts 216°
2026-04-30 20:38 55.38695 37.45869 9985 ft 292 kts 217°
2026-04-30 20:39 55.35375 37.41761 9978 ft 291 kts 217°
2026-04-30 20:39 55.33738 37.39724 9982 ft 291 kts 217°
2026-04-30 20:39 55.32238 37.37357 9958 ft 287 kts 239°
2026-04-30 20:40 55.31483 37.30658 10456 ft 297 kts 272°
2026-04-30 20:40 55.31485 37.26979 11044 ft 309 kts 272°
2026-04-30 20:40 55.31465 37.23201 11798 ft 314 kts 271°
2026-04-30 20:41 55.31387 37.15473 13341 ft 322 kts 272°
2026-04-30 20:41 55.31575 37.11574 14063 ft 325 kts 282°
2026-04-30 20:41 55.32164 37.07769 14790 ft 326 kts 292°
2026-04-30 20:41 55.32990 37.04015 15496 ft 330 kts 294°
2026-04-30 20:42 55.33853 37.00289 16194 ft 334 kts 295°
2026-04-30 20:42 55.34721 36.96525 16814 ft 338 kts 295°
2026-04-30 20:42 55.36468 36.88839 17170 ft 340 kts 295°
2026-04-30 20:43 55.37439 36.85077 17161 ft 336 kts 307°
2026-04-30 20:43 55.39037 36.82215 17166 ft 327 kts 330°
2026-04-30 20:43 55.41131 36.80682 17348 ft 328 kts 352°
2026-04-30 20:44 55.45645 36.80139 18814 ft 328 kts 359°
2026-04-30 20:44 55.47911 36.79912 19464 ft 330 kts 359°
2026-04-30 20:44 55.52492 36.79444 20773 ft 332 kts 359°
2026-04-30 20:45 55.57090 36.78968 22041 ft 335 kts 359°
2026-04-30 20:45 55.59427 36.78382 22569 ft 342 kts 348°
2026-04-30 20:45 55.61642 36.76906 23093 ft 350 kts 337°
2026-04-30 20:46 55.67766 36.69577 24793 ft 358 kts 330°
2026-04-30 20:46 55.69797 36.67027 25282 ft 361 kts 330°
2026-04-30 20:47 55.73917 36.61857 26178 ft 367 kts 330°
2026-04-30 20:47 55.75991 36.59251 26619 ft 369 kts 330°
2026-04-30 20:48 55.80172 36.53986 27484 ft 373 kts 330°
2026-04-30 20:48 55.82285 36.51319 27885 ft 376 kts 330°
2026-04-30 20:48 55.84437 36.48600 28302 ft 377 kts 330°
2026-04-30 20:48 55.86552 36.45930 28685 ft 379 kts 331°
2026-04-30 20:49 55.88753 36.43302 29036 ft 380 kts 332°
2026-04-30 20:49 55.90966 36.40715 29368 ft 382 kts 332°
2026-04-30 20:49 55.93171 36.38139 29670 ft 384 kts 332°
2026-04-30 20:50 55.97647 36.32887 30261 ft 387 kts 332°
2026-04-30 20:50 55.99871 36.30256 30506 ft 389 kts 332°
2026-04-30 20:50 56.02137 36.27579 30752 ft 391 kts 332°
2026-04-30 20:50 56.04414 36.24889 31004 ft 392 kts 332°
2026-04-30 20:51 56.06653 36.22240 31246 ft 391 kts 332°
2026-04-30 20:51 56.11050 36.16439 31688 ft 396 kts 324°
2026-04-30 20:51 56.13029 36.13055 31913 ft 400 kts 319°
2026-04-30 20:52 56.14872 36.09300 32137 ft 404 kts 314°
2026-04-30 20:52 56.16528 36.05231 32347 ft 408 kts 309°
2026-04-30 20:52 56.19570 35.96623 32766 ft 409 kts 309°
2026-04-30 20:53 56.21204 35.92531 32992 ft 406 kts 314°
2026-04-30 20:53 56.23022 35.88668 33209 ft 403 kts 318°
2026-04-30 20:53 56.24972 35.85135 33417 ft 401 kts 322°
2026-04-30 20:54 56.29292 35.78864 33851 ft 398 kts 328°
2026-04-30 20:54 56.31502 35.75983 34089 ft 398 kts 329°
2026-04-30 20:54 56.33752 35.73067 34312 ft 399 kts 329°
2026-04-30 20:55 56.38283 35.67172 34490 ft 408 kts 328°
2026-04-30 20:55 56.42933 35.61060 34670 ft 417 kts 328°
2026-04-30 20:56 56.47577 35.54805 34830 ft 424 kts 327°
2026-04-30 20:56 56.49948 35.51598 34907 ft 427 kts 327°
2026-04-30 20:56 56.54729 35.45120 35049 ft 433 kts 328°
2026-04-30 20:57 56.57129 35.41862 35107 ft 435 kts 327°
2026-04-30 20:57 56.61974 35.35229 35216 ft 440 kts 327°
2026-04-30 20:58 56.66853 35.28464 35355 ft 443 kts 326°
2026-04-30 20:58 56.69316 35.25042 35467 ft 444 kts 326°
2026-04-30 20:58 56.71755 35.21649 35582 ft 443 kts 326°
2026-04-30 20:58 56.74179 35.18278 35686 ft 443 kts 326°
2026-04-30 20:59 56.79077 35.11456 35870 ft 444 kts 326°
2026-04-30 20:59 56.81501 35.08075 35978 ft 444 kts 326°
2026-04-30 21:00 56.86391 35.01228 36189 ft 443 kts 326°
2026-04-30 21:00 56.91311 34.94453 36367 ft 442 kts 329°
2026-04-30 21:01 56.96386 34.88279 36484 ft 443 kts 330°
2026-04-30 21:01 56.98988 34.85176 36570 ft 443 kts 331°
2026-04-30 21:01 57.04120 34.79044 36768 ft 442 kts 331°
2026-04-30 21:02 57.06685 34.75968 36857 ft 442 kts 331°
2026-04-30 21:02 57.11791 34.69836 36994 ft 443 kts 330°
2026-04-30 21:03 57.16961 34.63625 37143 ft 444 kts 330°
2026-04-30 21:03 57.22095 34.57419 37303 ft 444 kts 330°
2026-04-30 21:04 57.27215 34.51198 37475 ft 444 kts 330°
2026-04-30 21:04 57.34930 34.41779 37690 ft 445 kts 330°
2026-04-30 21:05 57.40060 34.35483 37823 ft 445 kts 330°
2026-04-30 21:05 57.45179 34.29162 37965 ft 445 kts 329°
2026-04-30 21:06 57.50343 34.22763 38081 ft 445 kts 329°
2026-04-30 21:06 57.55473 34.16396 38167 ft 446 kts 329°
2026-04-30 21:07 57.60588 34.10032 38174 ft 444 kts 330°
2026-04-30 21:07 57.65712 34.03634 38163 ft 444 kts 330°
2026-04-30 21:08 57.70807 33.97258 38158 ft 444 kts 330°
2026-04-30 21:08 57.75905 33.90855 38155 ft 443 kts 330°
2026-04-30 21:09 57.81020 33.84406 38155 ft 443 kts 330°
2026-04-30 21:09 57.86116 33.77920 38152 ft 445 kts 329°
2026-04-30 21:10 57.90992 33.70856 38154 ft 446 kts 326°
2026-04-30 21:10 57.95784 33.63567 38150 ft 444 kts 326°
2026-04-30 21:11 58.00567 33.56266 38150 ft 444 kts 326°
2026-04-30 21:11 58.05360 33.48935 38147 ft 444 kts 326°
2026-04-30 21:12 58.07723 33.45306 37980 ft 440 kts 326°
2026-04-30 21:12 58.10102 33.41648 37506 ft 437 kts 326°
2026-04-30 21:12 58.12439 33.38063 36885 ft 437 kts 327°
2026-04-30 21:12 58.14772 33.34480 36286 ft 436 kts 326°
2026-04-30 21:13 58.17122 33.30850 35709 ft 434 kts 326°
2026-04-30 21:13 58.19404 33.27312 35160 ft 430 kts 327°
2026-04-30 21:13 58.21702 33.23750 34775 ft 423 kts 327°
2026-04-30 21:13 58.23947 33.20258 34420 ft 411 kts 328°
2026-04-30 21:14 58.26096 33.16912 33694 ft 404 kts 328°
2026-04-30 21:14 58.28251 33.13565 32741 ft 404 kts 328°
2026-04-30 21:14 58.30410 33.10221 31637 ft 406 kts 328°
2026-04-30 21:14 58.32567 33.06868 30364 ft 407 kts 328°
2026-04-30 21:15 58.34752 33.03459 28984 ft 412 kts 328°
2026-04-30 21:15 58.36966 33.00003 27676 ft 422 kts 327°
2026-04-30 21:15 58.39241 32.96443 26453 ft 428 kts 327°
2026-04-30 21:15 58.41524 32.92855 25366 ft 430 kts 327°
2026-04-30 21:16 58.43813 32.89244 24325 ft 430 kts 327°
2026-04-30 21:16 58.46096 32.85646 23174 ft 432 kts 326°
2026-04-30 21:16 58.48394 32.82019 22121 ft 430 kts 326°
2026-04-30 21:16 58.50668 32.78419 21356 ft 423 kts 326°
2026-04-30 21:17 58.52893 32.74891 20553 ft 417 kts 326°
2026-04-30 21:17 58.55062 32.71437 19820 ft 397 kts 326°
2026-04-30 21:17 58.57152 32.68098 18921 ft 387 kts 326°
2026-04-30 21:17 58.59210 32.64835 17811 ft 391 kts 326°
2026-04-30 21:18 58.61292 32.61528 16980 ft 389 kts 326°
2026-04-30 21:18 58.63351 32.58241 16266 ft 385 kts 325°
2026-04-30 21:18 58.65367 32.55011 15524 ft 382 kts 325°
2026-04-30 21:18 58.67404 32.51745 14787 ft 379 kts 325°
2026-04-30 21:19 58.69411 32.48523 14030 ft 377 kts 325°
2026-04-30 21:19 58.71390 32.45338 13464 ft 373 kts 325°
2026-04-30 21:19 58.73384 32.42131 13196 ft 373 kts 325°
2026-04-30 21:19 58.75368 32.38929 13179 ft 374 kts 325°
2026-04-30 21:20 58.77338 32.35750 13171 ft 373 kts 325°
2026-04-30 21:20 58.79342 32.32507 13168 ft 373 kts 324°
2026-04-30 21:20 58.81307 32.29311 13167 ft 374 kts 324°
2026-04-30 21:20 58.83301 32.26064 13165 ft 374 kts 324°
2026-04-30 21:21 58.85287 32.22827 13166 ft 373 kts 324°
2026-04-30 21:21 58.87288 32.19568 13167 ft 374 kts 324°
2026-04-30 21:21 58.91219 32.13149 13170 ft 373 kts 324°
2026-04-30 21:22 58.93221 32.09880 13170 ft 374 kts 324°
2026-04-30 21:22 58.99145 32.00159 13168 ft 374 kts 324°
2026-04-30 21:23 59.01129 31.96895 13169 ft 375 kts 324°
2026-04-30 21:23 59.03120 31.93615 13170 ft 374 kts 324°
2026-04-30 21:23 59.07047 31.87121 13171 ft 373 kts 324°
2026-04-30 21:24 59.09016 31.83862 13172 ft 373 kts 324°
2026-04-30 21:24 59.10962 31.80545 13173 ft 375 kts 322°
2026-04-30 21:24 59.12852 31.77050 13174 ft 375 kts 321°
2026-04-30 21:24 59.14721 31.73522 13172 ft 375 kts 321°
2026-04-30 21:25 59.18440 31.66464 13172 ft 375 kts 321°
2026-04-30 21:25 59.20310 31.62904 13161 ft 374 kts 321°
2026-04-30 21:25 59.22144 31.59404 12787 ft 367 kts 321°
2026-04-30 21:26 59.25699 31.52608 11526 ft 342 kts 321°
2026-04-30 21:26 59.27333 31.49470 10914 ft 321 kts 321°
2026-04-30 21:27 59.30296 31.43716 9888 ft 285 kts 320°
2026-04-30 21:27 59.31627 31.40984 9489 ft 267 kts 319°
2026-04-30 21:27 59.32861 31.38441 8963 ft 258 kts 319°
2026-04-30 21:28 59.35319 31.33389 7518 ft 255 kts 318°
2026-04-30 21:28 59.36526 31.30896 6857 ft 255 kts 317°
2026-04-30 21:28 59.38943 31.25897 6043 ft 252 kts 317°
2026-04-30 21:29 59.40145 31.23407 5667 ft 251 kts 317°
2026-04-30 21:29 59.43714 31.16014 4529 ft 249 kts 317°
2026-04-30 21:30 59.46088 31.11089 3786 ft 247 kts 316°
2026-04-30 21:31 59.49609 31.03756 3477 ft 247 kts 316°
2026-04-30 21:31 59.51974 30.98821 3476 ft 247 kts 316°
2026-04-30 21:32 59.54329 30.93895 3477 ft 247 kts 316°
2026-04-30 21:32 59.55503 30.91435 3475 ft 246 kts 316°
2026-04-30 21:32 59.56664 30.88997 3420 ft 243 kts 316°
2026-04-30 21:32 59.57812 30.86587 3041 ft 244 kts 316°
2026-04-30 21:33 59.58970 30.84160 2656 ft 244 kts 316°
2026-04-30 21:33 59.61285 30.79288 2481 ft 243 kts 316°
2026-04-30 21:33 59.62439 30.76849 2482 ft 242 kts 315°
2026-04-30 21:34 59.63590 30.74416 2478 ft 244 kts 316°
2026-04-30 21:34 59.65900 30.69553 2477 ft 243 kts 317°
2026-04-30 21:34 59.67137 30.67349 2474 ft 233 kts 324°
2026-04-30 21:35 59.68399 30.65504 2470 ft 217 kts 327°
2026-04-30 21:35 59.69577 30.63859 2467 ft 202 kts 328°
2026-04-30 21:35 59.70690 30.62313 2465 ft 188 kts 328°
2026-04-30 21:35 59.71723 30.60878 2463 ft 173 kts 328°
2026-04-30 21:36 59.72690 30.59531 2546 ft 171 kts 328°
2026-04-30 21:36 59.73657 30.58191 2505 ft 169 kts 328°
2026-04-30 21:37 59.75489 30.52184 2479 ft 177 kts 294°
2026-04-30 21:37 59.75864 30.49848 2383 ft 178 kts 292°
2026-04-30 21:37 59.76209 30.47530 2143 ft 170 kts 291°
2026-04-30 21:37 59.76519 30.45382 1928 ft 157 kts 291°
2026-04-30 21:38 59.76807 30.43391 1700 ft 143 kts 291°
2026-04-30 21:38 59.77071 30.41583 1492 ft 133 kts 291°
2026-04-30 21:38 59.77330 30.39831 1324 ft 132 kts 290°
2026-04-30 21:38 59.77588 30.38088 1154 ft 131 kts 290°
2026-04-30 21:39 59.77840 30.36346 971 ft 130 kts 289°
2026-04-30 21:39 59.78089 30.34627 761 ft 129 kts 288°
2026-04-30 21:39 59.78345 30.32934 591 ft 129 kts 288°
2026-04-30 21:39 59.78604 30.31206 413 ft 129 kts 286°
2026-04-30 21:40 59.78850 30.29515 248 ft 128 kts 287°
2026-04-30 21:40 59.79098 30.27839 107 ft 123 kts 285°
2026-04-30 21:40 59.79302 30.26444 86 ft 71 kts 287°
2026-04-30 21:40 59.79368 30.26016 85 ft 12 kts 287°
2026-04-30 21:41 59.79394 30.25847 85 ft 13 kts 286°
2026-04-30 21:41 59.79420 30.25670 85 ft 13 kts 286°
2026-04-30 21:41 59.79447 30.25489 85 ft 13 kts 286°
2026-04-30 21:41 59.79474 30.25304 85 ft 14 kts 286°
2026-04-30 21:42 59.79502 30.25115 85 ft 14 kts 286°
2026-04-30 21:42 59.79530 30.24923 85 ft 14 kts 286°
2026-04-30 21:42 59.79561 30.24723 83 ft 16 kts 287°
2026-04-30 21:42 59.79594 30.24500 82 ft 16 kts 286°
2026-04-30 21:43 59.79627 30.24277 82 ft 16 kts 286°
2026-04-30 21:43 59.79659 30.24060 82 ft 16 kts 287°
2026-04-30 21:43 59.79692 30.23843 82 ft 16 kts 286°
2026-04-30 21:43 59.79723 30.23629 82 ft 16 kts 285°
2026-04-30 21:44 59.79757 30.23410 80 ft 17 kts 294°
2026-04-30 21:44 59.79813 30.23239 79 ft 11 kts 310°
2026-04-30 21:44 59.79868 30.23121 78 ft 10 kts 313°
2026-04-30 21:44 59.79921 30.23022 78 ft 10 kts 335°
2026-04-30 21:45 59.79978 30.23087 78 ft 11 kts 78°
2026-04-30 21:45 59.79971 30.23185 78 ft 0 kts 106°
2026-04-30 21:45 59.79970 30.23185 78 ft 0 kts 106°
2026-04-30 21:46 59.79961 30.23247 78 ft 11 kts 106°
2026-04-30 21:46 59.79937 30.23407 80 ft 11 kts 106°
2026-04-30 21:46 59.79913 30.23570 80 ft 12 kts 106°
2026-04-30 21:47 59.79889 30.23731 82 ft 12 kts 106°
2026-04-30 21:47 59.79858 30.23943 82 ft 17 kts 106°
2026-04-30 21:47 59.79824 30.24171 82 ft 17 kts 106°
2026-04-30 21:47 59.79794 30.24376 82 ft 13 kts 106°
2026-04-30 21:48 59.79768 30.24548 82 ft 13 kts 106°
2026-04-30 21:48 59.79740 30.24732 83 ft 13 kts 106°
2026-04-30 21:48 59.79716 30.24898 86 ft 11 kts 106°
2026-04-30 21:48 59.79694 30.25044 89 ft 11 kts 106°
2026-04-30 21:49 59.79671 30.25200 89 ft 12 kts 106°
2026-04-30 21:49 59.79646 30.25371 88 ft 13 kts 106°
2026-04-30 21:49 59.79617 30.25564 88 ft 15 kts 106°
2026-04-30 21:49 59.79587 30.25768 87 ft 16 kts 106°
2026-04-30 21:50 59.79554 30.25989 86 ft 17 kts 106°
2026-04-30 21:50 59.79521 30.26215 85 ft 14 kts 106°
2026-04-30 21:50 59.79519 30.26343 85 ft 9 kts 50°
2026-04-30 21:50 59.79587 30.26396 85 ft 11 kts 16°
2026-04-30 21:51 59.79665 30.26441 85 ft 10 kts 16°
2026-04-30 21:51 59.79735 30.26482 85 ft 10 kts 16°
2026-04-30 21:51 59.79792 30.26516 85 ft 6 kts 16°
2026-04-30 21:51 59.79827 30.26546 86 ft 5 kts 49°
2026-04-30 21:52 59.79827 30.26610 85 ft 4 kts 105°
2026-04-30 21:52 59.79821 30.26651 85 ft 2 kts 106°
2026-04-30 21:52 59.79821 30.26652 85 ft 0 kts 106°